Precipitable_Water
0.63 0.61 0.61 0.63 0.62 0.63 0.57 0.55 0.51 0.48 0.44 0.42 0.39 0.33 0.32 0.29 0.28 0.28 0.27 0.28 0.31 0.33
0.64 0.62 0.61 0.57 0.48 0.46 0.45 0.47 0.48 0.46 0.40 0.36 0.31 0.30 0.28 0.27 0.25 0.24 0.24 0.23 0.24 0.27
0.53 0.51 0.47 0.42 0.42 0.47 0.49 0.51 0.50 0.48 0.35 0.30 0.29 0.28 0.28 0.25 0.23 0.23 0.24 0.25 0.25 0.23
0.43 0.45 0.46 0.44 0.44 0.47 0.49 0.53 0.47 0.41 0.38 0.33 0.28 0.25 0.24 0.24 0.23 0.24 0.23 0.23 0.23 0.22
0.44 0.44 0.44 0.43 0.42 0.46 0.45 0.45 0.43 0.41 0.36 0.29 0.25 0.24 0.22 0.22 0.22 0.21 0.21 0.21 0.22 0.22
0.26 0.28 0.34 0.43 0.40 0.38 0.41 0.42 0.46 0.33 0.28 0.24 0.23 0.22 0.23 0.23 0.22 0.23 0.24 0.25 0.23 0.22
0.24 0.26 0.32 0.36 0.40 0.45 0.49 0.42 0.35 0.28 0.26 0.25 0.24 0.23 0.24 0.23 0.23 0.24 0.24 0.24 0.24 0.23
0.24 0.26 0.30 0.35 0.37 0.39 0.37 0.35 0.29 0.27 0.26 0.25 0.23 0.24 0.25 0.24 0.24 0.24 0.23 0.23 0.23 0.23
0.25 0.26 0.29 0.31 0.34 0.37 0.34 0.28 0.27 0.29 0.26 0.22 0.24 0.26 0.25 0.25 0.23 0.21 0.22 0.23 0.24 0.23
0.25 0.26 0.29 0.33 0.36 0.37 0.31 0.33 0.31 0.26 0.25 0.23 0.26 0.25 0.25 0.25 0.23 0.23 0.24 0.24 0.24 0.23
0.26 0.26 0.29 0.34 0.36 0.38 0.37 0.34 0.27 0.26 0.26 0.25 0.25 0.25 0.26 0.26 0.24 0.24 0.25 0.25 0.24 0.24
0.27 0.26 0.30 0.33 0.34 0.35 0.34 0.27 0.28 0.28 0.26 0.24 0.23 0.25 0.25 0.23 0.21 0.21 0.23 0.25 0.25 0.26
0.28 0.29 0.31 0.33 0.34 0.34 0.27 0.29 0.29 0.27 0.24 0.23 0.21 0.22 0.21 0.20 0.19 0.20 0.23 0.25 0.25 0.25
0.29 0.30 0.31 0.31 0.29 0.28 0.30 0.31 0.27 0.23 0.23 0.21 0.20 0.19 0.19 0.19 0.19 0.21 0.23 0.23 0.23 0.24
Wind_Speed
35 37 40 45 49 50 49 47 48 48 50 51 52 51 50 50 49 48 48 48 47 47
41 44 48 50 51 49 48 48 47 49 51 52 51 50 48 47 49 48 45 42 41 39
45 47 50 51 50 48 48 47 47 49 50 49 48 45 44 45 45 40 38 37 35 33
47 49 50 49 48 48 48 48 50 50 50 47 43 41 42 41 38 34 32 31 31 33
49 50 51 49 49 50 50 49 49 48 45 40 39 40 38 37 32 31 31 32 34 36
52 53 53 51 50 48 47 47 47 44 38 37 37 37 35 33 32 32 33 35 38 39
53 53 50 46 46 47 47 47 41 36 33 35 35 36 33 31 32 34 36 39 40 40
52 51 49 49 49 48 45 41 34 31 33 34 35 31 30 31 33 36 39 40 38 38
53 52 51 49 47 43 38 32 29 31 32 31 27 29 30 33 36 38 38 37 36 35
53 53 50 47 41 37 30 27 27 27 26 25 27 29 32 35 36 37 36 35 34 33
53 51 48 41 35 29 26 25 24 23 23 26 29 31 33 35 36 35 34 33 32 33
51 48 42 35 30 24 24 21 22 21 24 27 29 31 34 34 34 33 32 31 32 31
49 44 37 31 27 24 21 21 20 22 24 26 29 32 33 33 33 32 29 29 29 28
45 38 32 26 23 22 21 20 20 22 24 27 30 31 32 33 32 29 26 26 25 24
Wind_Direction
310 309 309 309 310 306 307 306 308 307 308 307 307 305 304 303 301 299 297 294 292 290
310 309 309 310 310 307 307 306 306 307 308 308 307 306 305 305 304 301 298 296 295 294
311 310 310 311 310 307 307 305 305 307 308 308 307 307 306 308 308 303 300 298 297 295
312 311 310 309 308 307 306 304 307 306 307 307 307 309 308 309 310 307 304 302 299 297
314 313 312 310 309 308 306 306 305 307 307 306 307 310 309 311 310 308 307 305 302 300
317 315 312 309 309 309 308 309 307 306 304 307 307 310 310 311 310 309 307 306 304 302
319 318 315 312 311 311 308 309 306 305 305 309 309 310 310 310 311 310 309 308 306 304
322 321 318 314 311 309 307 307 301 304 307 309 311 311 312 312 312 312 312 311 309 308
322 321 318 315 313 310 309 306 303 306 310 312 312 314 314 315 315 315 315 314 313 312
323 322 320 318 315 311 309 309 307 310 314 316 317 317 317 317 318 318 317 316 316 315
323 322 320 319 317 312 311 309 310 313 317 319 320 320 321 322 322 321 320 319 319 317
322 322 321 318 318 312 314 311 312 314 318 322 324 325 326 325 325 325 323 323 322 322
322 320 318 314 312 311 310 311 310 315 319 323 326 327 329 328 329 328 327 328 330 330
320 319 318 315 314 311 309 308 310 316 320 324 327 329 331 331 331 331 331 334 337 340